Location: Praha
(50.0830°N, 14.4670°E)
Time: 09:55:33
(UTC+01:00)

ISS - Pass Details

Date: 26 February 2019
Orbit: 406 x 411 km, 51.6° (Epoch: 20 March)

Event Time Altitude Azimuth Distance (km) Brightness Sun altitude
Exits shadow 05:33:31 - 208° (SSW) 1,600 -1.1 -13.4°
Reaches altitude 10° 05:33:54 10° 204° (SSW) 1,460 -1.3 -13.4°
Maximum altitude 05:36:42 26° 146° (SE) 834 -1.9 -12.9°
Drops below altitude 10° 05:39:31 10° 87° (E) 1,469 0.5 -12.5°
Sets 05:41:48 0° 74° (ENE) 2,333 1.7 -12.1°
